GW6367 Weather Reports


time (UTC)temp
F
wind
direction
speed
knots
gust
knots
rain 1hr
in
rain 24hr
in
rain mn
in
humidity
%
barometer
mb
20260505095353 72 295 3.5 5.2 0.00 0.00 0.00 84 1008.0
20260505094853 72 238 3.5 7.8 0.00 0.00 0.00 83 1008.0
20260505094353 73 282 4.3 7.8 0.00 0.00 0.00 82 1008.0
20260505093854 73 253 5.2 6.1 0.00 0.00 0.00 80 1008.0
20260505093355 74 276 3.5 7.8 0.00 0.00 0.00 78 1008.0
20260505092853 74 242 6.1 7.0 0.00 0.00 0.00 78 1008.0
20260505092353 73 278 2.6 7.8 0.00 0.00 0.00 79 1008.0
20260505091854 73 246 4.3 7.8 0.00 0.00 0.00 80 1008.0
20260505091353 73 340 2.6 10.4 0.00 0.00 0.00 80 1008.0
20260505090854 73 294 2.6 9.6 0.00 0.00 0.00 79 1008.0
20260505090353 74 238 5.2 8.7 0.00 0.00 0.00 79 1008.0
20260505085854 74 285 4.3 8.7 0.00 0.00 0.00 77 1008.0
20260505085353 75 233 3.5 7.0 0.00 0.00 0.00 76 1008.0
20260505084854 76 266 6.1 7.8 0.00 0.00 0.00 74 1008.0
20260505084353 77 256 2.6 6.1 0.00 0.00 0.00 71 1008.0
20260505083853 77 239 2.6 6.1 0.00 0.00 0.00 70 1007.0
20260505083353 77 309 4.3 6.1 0.00 0.00 0.00 69 1007.0
20260505082854 78 246 6.1 9.6 0.00 0.00 0.00 68 1008.0
20260505082353 78 231 1.7 7.0 0.00 0.00 0.00 67 1008.0
20260505081853 78 214 6.1 8.7 0.00 0.00 0.00 67 1008.0
20260505081354 78 269 4.3 9.6 0.00 0.00 0.00 66 1008.0
20260505080854 78 282 3.5 11.3 0.00 0.00 0.00 65 1008.0
20260505080353 78 241 3.5 9.6 0.00 0.00 0.00 65 1008.0
20260505075853 78 243 5.2 7.8 0.00 0.00 0.00 63 1008.0
20260505075353 79 239 2.6 7.8 0.00 0.00 0.00 63 1008.0
20260505074855 79 295 3.5 6.1 0.00 0.00 0.00 63 1008.0
20260505074354 79 316 5.2 7.0 0.00 0.00 0.00 63 1008.0
20260505073854 79 302 7.8 8.7 0.00 0.00 0.00 63 1008.0
20260505073353 78 256 3.5 7.8 0.00 0.00 0.00 64 1008.0
20260505072853 79 260 3.5 5.2 0.00 0.00 0.00 62 1008.0
20260505072355 78 267 6.1 8.7 0.00 0.00 0.00 64 1008.0
20260505071854 77 207 3.5 5.2 0.00 0.00 0.00 65 1008.0
20260505071353 78 225 3.5 7.0 0.00 0.00 0.00 64 1008.0
20260505070853 78 250 3.5 7.8 0.00 0.00 0.00 65 1008.0
20260505070353 77 308 4.3 6.1 0.00 0.00 0.00 66 1009.0
20260505065853 77 285 2.6 7.0 0.00 0.00 0.00 66 1009.0
20260505065355 77 242 4.3 4.3 0.00 0.00 0.00 65 1009.0
20260505064853 77 230 3.5 7.8 0.00 0.00 0.00 66 1009.0
20260505064353 77 292 3.5 7.0 0.00 0.00 0.00 66 1009.0
20260505063853 77 250 6.1 9.6 0.00 0.00 0.00 67 1009.0
20260505063353 77 241 3.5 5.2 0.00 0.00 0.00 66 1009.0
20260505062854 78 287 3.5 8.7 0.00 0.00 0.00 65 1009.0
20260505062353 78 242 2.6 7.8 0.00 0.00 0.00 65 1009.0
20260505061853 76 299 5.2 7.0 0.00 0.00 0.00 67 1009.0
20260505061353 77 272 5.2 7.0 0.00 0.00 0.00 66 1009.0
20260505060853 77 272 3.5 7.0 0.00 0.00 0.00 65 1009.0
20260505060353 77 288 4.3 7.0 0.00 0.00 0.00 65 1009.0
20260505055853 78 244 5.2 9.6 0.00 0.00 0.00 64 1009.0
20260505055354 78 254 4.3 7.0 0.00 0.00 0.00 64 1010.0
20260505054853 78 309 4.3 7.8 0.00 0.00 0.00 62 1009.0
20260505054353 77 275 2.6 7.8 0.00 0.00 0.00 64 1009.0
20260505053855 76 227 1.7 7.8 0.00 0.00 0.00 66 1009.0
20260505053353 77 258 6.1 11.3 0.00 0.00 0.00 65 1010.0
20260505052853 77 264 4.3 7.0 0.00 0.00 0.00 64 1010.0
20260505052354 79 244 5.2 7.0 0.00 0.00 0.00 61 1010.0
20260505051853 79 264 4.3 7.0 0.00 0.00 0.00 61 1010.0
20260505051353 78 247 5.2 7.0 0.00 0.00 0.00 63 1010.0
20260505050853 77 229 4.3 6.1 0.00 0.00 0.00 64 1010.0
20260505050353 78 283 3.5 7.8 0.00 0.00 0.00 64 1010.0
20260505041422 78 269 4.3 8.7 0.00 0.00 0.00 62 1011.0
20260505040854 79 283 1.7 6.1 0.00 0.00 0.00 60 1011.0
20260505035915 78 279 2.6 5.2 0.00 0.00 0.00 59 1011.0
20260505035356 80 272 4.3 5.2 0.00 0.00 0.00 57 1011.0
20260505034853 81 310 1.7 7.8 0.00 0.00 0.00 55 1011.0
20260505034353 79 309 1.7 3.5 0.00 0.00 0.00 57 1011.0
20260505033853 77 226 1.7 7.0 0.00 0.00 0.00 61 1011.0
20260505033353 78 265 2.6 6.1 0.00 0.00 0.00 60 1011.0
20260505032853 79 282 2.6 8.7 0.00 0.00 0.00 58 1011.0
20260505032354 78 275 2.6 2.6 0.00 0.00 0.00 57 1011.0
20260505031853 79 240 4.3 6.1 0.00 0.00 0.00 54 1012.0
20260505031353 79 169 0.9 4.3 0.00 0.00 0.00 53 1012.0
20260505030854 79 239 3.5 6.1 0.00 0.00 0.00 55 1012.0
20260505030355 79 160 0.0 2.6 0.00 0.00 0.00 53 1012.0
20260505025855 80 77 0.9 4.3 0.00 0.00 0.00 53 1012.0
20260505025355 78 33 2.6 6.1 0.00 0.00 0.00 54 1012.0
20260505024855 80 305 2.6 5.2 0.00 0.00 0.00 52 1012.0
20260505024356 80 289 1.7 4.3 0.00 0.00 0.00 50 1012.0
20260505023853 79 96 2.6 4.3 0.00 0.00 0.00 50 1012.0
20260505023355 79 197 2.6 4.3 0.00 0.00 0.00 49 1012.0
20260505022855 79 175 3.5 3.5 0.00 0.00 0.00 49 1012.0
20260505022356 78 327 4.3 4.3 0.00 0.00 0.00 50 1012.0
20260505021855 79 339 3.5 4.3 0.00 0.00 0.00 50 1011.0
20260505021356 79 227 2.6 4.3 0.00 0.00 0.00 49 1012.0
20260505020854 78 294 1.7 4.3 0.00 0.00 0.00 51 1012.0
20260505020354 77 268 2.6 3.5 0.00 0.00 0.00 52 1012.0
20260505015853 77 273 1.7 4.3 0.00 0.00 0.00 52 1012.0
20260505015353 77 22 4.3 4.3 0.00 0.00 0.00 52 1012.0
20260505014854 77 180 1.7 3.5 0.00 0.00 0.00 51 1012.0
20260505014353 77 9 4.3 4.3 0.00 0.00 0.00 52 1012.0
20260505013853 76 206 2.6 4.3 0.00 0.00 0.00 51 1012.0
20260505013353 77 13 1.7 4.3 0.00 0.00 0.00 52 1012.0
20260505012853 77 214 2.6 3.5 0.00 0.00 0.00 52 1012.0
20260505012353 75 218 1.7 3.5 0.00 0.00 0.00 52 1012.0
20260505011854 74 164 0.9 2.6 0.00 0.00 0.00 54 1012.0
20260505011353 75 32 4.3 5.2 0.00 0.00 0.00 54 1012.0
20260505010854 75 247 0.9 5.2 0.00 0.00 0.00 53 1012.0
20260505010354 74 350 2.6 3.5 0.00 0.00 0.00 59 1013.0
20260505005855 74 57 0.9 3.5 0.00 0.00 0.00 57 1013.0
20260505005356 75 332 2.6 6.1 0.00 0.00 0.00 57 1013.0
20260505004854 74 305 2.6 4.3 0.00 0.00 0.00 59 1012.0
20260505004353 73 356 0.9 5.2 0.00 0.00 0.00 61 1012.0
20260505003853 71 216 0.9 4.3 0.00 0.00 0.00 63 1013.0
20260505003353 72 34 1.7 4.3 0.00 0.00 0.00 62 1013.0
20260505002853 72 301 3.5 5.2 0.00 0.00 0.00 63 1013.0
20260505002353 72 26 1.7 4.3 0.00 0.00 0.00 63 1012.0
20260505001855 72 332 2.6 6.1 0.00 0.00 0.00 64 1012.0
20260505001353 72 17 0.0 3.5 0.00 0.00 0.00 64 1013.0
20260505000853 72 270 3.5 7.0 0.00 0.00 0.00 64 1012.0
20260505000353 72 269 0.9 3.5 0.00 0.00 0.00 65 1012.0
20260504235853 71 216 1.7 4.3 0.00 0.00 0.00 67 1012.0
20260504235355 70 217 2.6 4.3 0.00 0.00 0.00 69 1012.0
20260504234853 70 214 1.7 4.3 0.00 0.00 0.00 70 1012.0
20260504234353 70 262 0.9 4.3 0.00 0.00 0.00 70 1012.0
20260504233853 70 20 1.7 5.2 0.00 0.00 0.00 71 1012.0
20260504233353 70 235 2.6 4.3 0.00 0.00 0.00 72 1012.0
20260504232853 70 265 0.0 5.2 0.00 0.00 0.00 72 1012.0
20260504232353 70 346 1.7 3.5 0.00 0.00 0.00 73 1012.0
20260504231854 69 280 2.6 2.6 0.00 0.00 0.00 75 1012.0
20260504231353 68 221 2.6 3.5 0.00 0.00 0.00 76 1012.0
20260504230854 69 68 0.9 3.5 0.00 0.00 0.00 75 1012.0
20260504230353 68 210 0.9 2.6 0.00 0.00 0.00 77 1012.0
20260504225853 68 318 2.6 4.3 0.00 0.00 0.00 77 1012.0
20260504225354 67 329 0.9 2.6 0.00 0.00 0.00 79 1012.0
20260504224853 66 193 0.0 2.6 0.00 0.00 0.00 82 1012.0
20260504224354 66 152 2.6 3.5 0.00 0.00 0.00 83 1012.0
20260504223854 66 116 0.9 3.5 0.00 0.00 0.00 84 1011.0
20260504223354 65 72 1.7 2.6 0.00 0.00 0.00 85 1011.0
20260504222854 65 114 0.0 3.5 0.00 0.00 0.00 85 1011.0
20260504222353 65 184 0.0 2.6 0.00 0.00 0.00 85 1011.0
20260504221853 64 306 0.9 2.6 0.00 0.00 0.00 87 1012.0
20260504221353 64 170 0.0 1.7 0.00 0.00 0.00 87 1011.0
20260504220853 64 295 0.0 2.6 0.00 0.00 0.00 87 1011.0
20260504220354 64 202 0.9 2.6 0.00 0.00 0.00 87 1011.0
20260504215853 64 218 1.7 2.6 0.00 0.00 0.00 86 1011.0
20260504215353 64 265 0.0 3.5 0.00 0.00 0.00 86 1011.0
20260504214853 64 354 2.6 4.3 0.00 0.00 0.00 85 1011.0
20260504214353 64 336 0.9 2.6 0.00 0.00 0.00 85 1011.0
20260504213853 64 337 0.0 1.7 0.00 0.00 0.00 85 1011.0
20260504213354 64 47 0.0 1.7 0.00 0.00 0.00 85 1011.0
20260504212854 64 290 0.9 1.7 0.00 0.00 0.00 85 1011.0
20260504212353 65 159 0.0 2.6 0.00 0.00 0.00 83 1011.0
20260504211853 65 226 0.9 2.6 0.00 0.00 0.00 83 1011.0
20260504211354 65 294 1.7 2.6 0.00 0.00 0.00 82 1011.0
20260504210855 65 115 0.9 2.6 0.00 0.00 0.00 82 1011.0
20260504210354 65 303 0.0 2.6 0.00 0.00 0.00 82 1010.0
20260504205853 65 14 0.0 1.7 0.00 0.00 0.00 82 1010.0
20260504205353 64 280 1.7 1.7 0.00 0.00 0.00 83 1010.0
20260504204854 64 275 1.7 1.7 0.00 0.00 0.00 85 1010.0
20260504204353 64 220 0.9 3.5 0.00 0.00 0.00 85 1010.0
20260504203854 65 197 0.9 2.6 0.00 0.00 0.00 83 1010.0
20260504203353 65 359 0.9 2.6 0.00 0.00 0.00 83 1010.0
20260504202854 65 236 0.9 2.6 0.00 0.00 0.00 83 1010.0
20260504202354 65 317 0.9 2.6 0.00 0.00 0.00 84 1010.0
20260504201854 65 231 0.0 2.6 0.00 0.00 0.00 87 1010.0
20260504201354 65 62 0.0 2.6 0.00 0.00 0.00 88 1010.0
20260504200853 65 268 0.9 2.6 0.00 0.00 0.00 90 1010.0
20260504200353 65 230 2.6 3.5 0.00 0.00 0.00 92 1009.0
20260504195854 65 295 1.7 2.6 0.00 0.00 0.00 93 1009.0
20260504195354 66 232 1.7 3.5 0.00 0.00 0.00 92 1010.0
20260504194853 66 249 0.0 2.6 0.00 0.00 0.00 92 1009.0
20260504194355 66 232 0.0 1.7 0.00 0.00 0.00 93 1009.0
20260504193853 66 71 1.7 3.5 0.00 0.00 0.00 94 1009.0
20260504193353 66 296 1.7 2.6 0.00 0.00 0.00 95 1009.0
20260504192854 66 217 0.9 2.6 0.00 0.00 0.00 95 1009.0
20260504192354 66 302 1.7 1.7 0.00 0.00 0.00 94 1009.0
20260504191853 66 359 1.7 3.5 0.00 0.00 0.00 93 1009.0
20260504191354 66 177 0.0 2.6 0.00 0.00 0.00 96 1010.0
20260504190853 66 289 0.0 2.6 0.00 0.00 0.00 96 1010.0
20260504190354 66 324 1.7 2.6 0.00 0.00 0.00 97 1009.0
20260504185853 66 299 0.0 2.6 0.00 0.00 0.00 97 1009.0
20260504185353 66 222 1.7 2.6 0.00 0.00 0.00 97 1009.0
20260504184854 66 152 1.7 2.6 0.00 0.00 0.00 97 1009.0
20260504184353 66 245 1.7 2.6 0.00 0.00 0.00 97 1009.0
20260504183854 66 253 0.9 2.6 0.00 0.00 0.00 98 1009.0
20260504183354 66 108 0.9 2.6 0.00 0.00 0.00 98 1009.0
20260504182854 66 18 1.7 4.3 0.00 0.00 0.00 98 1009.0
20260504182353 66 171 2.6 3.5 0.00 0.00 0.00 98 1009.0
20260504181854 66 31 0.9 2.6 0.00 0.00 0.00 98 1009.0
20260504181354 66 7 2.6 3.5 0.00 0.00 0.00 97 1009.0
20260504180854 66 296 0.9 2.6 0.00 0.00 0.00 97 1009.0
20260504180354 66 88 1.7 2.6 0.00 0.00 0.00 98 1009.0
20260504175854 66 137 1.7 2.6 0.00 0.00 0.00 97 1009.0
20260504175355 66 107 1.7 2.6 0.00 0.00 0.00 98 1009.0
20260504174853 66 252 0.9 3.5 0.00 0.00 0.00 98 1009.0
20260504174353 66 171 0.9 3.5 0.00 0.00 0.00 97 1009.0
20260504173854 66 271 1.7 4.3 0.00 0.00 0.00 97 1009.0
20260504172945 66 175 0.9 4.3 0.00 0.00 0.00 97 1010.0
20260504172354 66 21 0.9 3.5 0.00 0.00 0.00 97 1010.0
20260504171853 66 112 0.9 3.5 0.00 0.00 0.00 96 1010.0
20260504171354 66 254 1.7 3.5 0.00 0.00 0.00 96 1010.0
20260504170854 66 241 1.7 4.3 0.00 0.00 0.00 96 1010.0
20260504170354 66 238 2.6 5.2 0.00 0.00 0.00 97 1009.0
20260504160354 68 327 0.0 2.6 0.00 0.00 0.00 93 1009.0
20260504150853 68 225 1.7 2.6 0.00 0.00 0.00 92 1010.0
20260504150353 68 241 1.7 2.6 0.00 0.00 0.00 91 1010.0
20260504140853 68 240 3.5 3.5 0.00 0.00 0.00 91 1010.0
20260504140354 69 249 1.7 2.6 0.00 0.00 0.00 90 1010.0
20260504130354 69 260 1.7 3.5 0.00 0.00 0.00 91 1009.0
20260504110353 73 239 0.9 4.3 0.00 0.00 0.00 80 1009.0
20260504100353 75 236 4.3 5.2 0.00 0.00 0.00 77 1009.0